STARLINK-1494, 45760

Orbit data source: Space-Track

STARLINK-1494, 45760 is a payload satellite owned by SpaceX/Seattle (US) in LEO that was launched on Sat, 13 Jun 2020 UTC via an FALCON 9 launch vehicle from the Air Force Eastern Test Range (AFETR). Payload-class satellites include a variety of spacecraft equipped with specific instruments for various scientific and technological missions. These include communications satellites like Starlink; space stations such as the ISS; scientific satellites like the Hubble; Earth observation satellites from companies like Planet Labs, Umbra, and HawkEye 360; GPS; miniature CubeSats for education and research; and military/defense satellites.

Loading next visibility...
Identifier
45760, 2020-038AG
Orbit
LEO
Last TLE update
20 hours ago
Origin
Manufacturer
SpaceX/Seattle
Mission
Operational Commercial Communications
Bus & Motor
STARLINK, Unknown motor
Mass
260 kg wet, ~248 kg dry
Launch date (UTC)
2020-06-13 (5 years ago)
Launch vehicle
FALCON 9
Launch site
Air Force Eastern Test Range (AFETR)
Object type
Payload
Rocket body
Debris
Shape & HBR
Box + 1 Pan, 8.86 m
Radar Cross Section
13.562 m², Large (>1 m²)

Expand to show TLE details & history

TLE from 20 hours ago
0 STARLINK-1494
1 45760U 20038AG  25181.60605289  .00001319  00000-0  10745-3 0  9992
2 45760  53.0565 268.2649 0001302  92.4518 267.6620 15.06393220278489
Epoch: 2025-06-30T14:32Z
TLE epoch observation values (Epoch: 2025-06-30T14:32:42.969Z)
Latitude
-0.00004°
Longitude
131.17238°
Altitude
548.149 km
Speed
7.589 km/s
True Right ascension
17h 53m 03s
True Declination
0° 00' 00"
Sunlit
Object was in full shadow at epoch
Visualization orbit readout
Latitude
53.20595°
Longitude
-143.09285°
Altitude
552.878 km
Speed
7.592 km/s
Apparent Right ascension
05h 49m 30s
Apparent Declination
31° 44' 27"
Sunlit
Object is in daylight
Visualization observer readout
Local Sidereal Time
21:41:19
Azimuth
46.127° ENE
Elevation
-0.488°
Doppler factor
1
Orbital elements
Apogee altitude
548.404 km
Perigee altitude
546.601 km
Semi-major axis
6,925.64 km
Eccentricity
0.00013
Inclination
53.0565°
RAAN
268.2649°
Arg. of periapsis
92.4518°
True anomaly
Unknown
Mean anomaly
267.662°
Eccentric anomaly
Unknown
Mean motion
3.76577 °/min
Orbital period
95.6 mins
BSTAR
0.00010745
Loading maneuver chart data...
Loading SW <> Apogee altitude chart data...

STARLINK-1494 Visibility forecast

Observer location: undefined°, undefined°

Span
Click to sort rows by Start time (UTC) header in descending order
Start Az.
Max El. time (UTC)
Max El. Az.
Max El.
End time (UTC)
End Az.
4 mins2025-07-01 13:16:56.870Z352.332° N2025-07-01 13:17:56.870Z9.814° NNE16.69°2025-07-01 13:20:56.870Z58.629° ENE
6 mins2025-07-01 14:55:56.870Z320.951° NNW2025-07-01 14:58:56.870Z68.015° E39.972°2025-07-01 15:01:56.870Z116.111° SE
4 mins2025-07-01 16:35:56.870Z263.561° W2025-07-01 16:37:56.870Z227.664° WSW17.501°2025-07-01 16:39:56.870Z194.857° SSW
7 mins2025-07-02 08:06:56.870Z225.925° WSW2025-07-02 08:10:56.870Z79.981° E44.18°2025-07-02 08:13:56.870Z52.097° ENE
4 mins2025-07-02 09:48:56.870Z304.019° NW2025-07-02 09:50:56.870Z344.645° N20.424°2025-07-02 09:52:56.870Z20.011° NNE
|